Cloud_Cover
100 100 100 100 100 100 91 53 15 54 100 100 100 100 89 90 100 100 100 100 97 16 5 1 0 0 0 0 0 0 0 0 0 0 0 0 0 0 0 0 0 0 0 0 0
32 100 100 100 100 100 71 5 0 6 98 100 100 100 100 100 92 92 100 100 100 100 88 5 4 0 0 0 0 0 0 0 0 0 0 0 0 0 0 0 0 0 0 0 0
100 100 100 100 100 100 67 5 0 0 6 52 100 100 100 100 100 22 69 100 95 99 90 66 11 5 3 0 0 0 0 0 0 0 0 0 0 0 0 0 0 0 0 0 0
5 100 100 100 100 100 100 100 2 0 5 5 5 6 100 100 100 100 31 60 94 28 16 77 10 30 21 5 5 1 0 0 0 0 0 0 0 0 0 0 0 0 0 0 0
100 100 100 100 100 100 99 100 5 0 0 0 0 1 70 100 100 100 100 98 50 12 5 10 9 5 11 71 52 8 5 3 0 0 0 0 0 0 0 0 0 0 0 0 0
72 100 100 100 100 100 100 100 31 4 3 5 4 1 4 100 100 100 85 20 5 5 5 5 5 5 5 5 5 20 65 21 5 5 3 0 0 0 0 0 0 0 0 0 0
78 100 100 100 100 100 72 7 5 5 5 5 4 5 5 58 97 38 78 93 5 6 9 5 5 5 3 5 5 5 5 5 5 5 5 5 4 0 0 0 0 0 0 0 0
8 37 27 91 100 100 35 5 5 4 4 4 5 5 5 4 5 6 80 99 96 70 5 5 5 2 0 2 0 1 4 5 5 5 5 5 4 0 1 1 0 0 0 0 0
5 5 56 49 10 5 5 5 1 5 2 4 4 5 5 0 13 98 99 62 57 29 16 5 5 5 3 0 0 0 0 0 0 0 0 1 0 0 0 0 0 0 0 0 0
5 5 5 5 5 5 5 4 3 5 4 5 4 5 3 1 1 99 100 100 100 100 100 99 88 5 5 26 3 0 1 0 0 0 0 0 0 0 0 0 0 0 0 0 0
5 5 5 5 5 5 5 1 1 3 5 5 4 5 5 3 0 0 99 100 87 13 5 23 5 5 4 0 0 1 1 0 0 0 0 0 0 0 0 0 0 0 0 0 0
5 0 0 0 0 0 0 0 0 2 4 5 5 5 5 5 3 5 5 75 51 35 38 18 5 4 0 0 0 0 1 0 0 3 1 0 0 0 0 0 0 0 0 0 0
0 0 0 0 0 0 0 0 0 0 0 0 0 0 0 0 0 0 0 0 0 0 0 2 0 0 0 0 0 5 5 5 13 3 0 2 0 0 0 0 0 0 1 0 0
0 0 0 0 0 0 0 0 0 0 14 0 0 0 0 0 2 0 0 0 0 1 0 1 0 0 0 4 5 6 5 5 5 39 5 1 5 0 0 0 0 0 0 0 0
0 0 0 0 0 0 0 0 0 0 6 0 0 0 0 0 0 0 0 0 0 0 2 3 0 0 5 5 5 5 5 32 100 100 82 2 12 0 1 0 0 0 3 10 35
0 0 0 0 0 0 0 0 0 52 3 0 0 0 0 0 0 0 0 0 0 0 0 0 0 0 3 0 4 6 70 95 100 89 62 3 2 4 2 4 0 2 34 100 100
0 0 0 0 0 0 0 0 66 4 0 1 0 0 0 2 3 0 0 0 2 24 9 0 1 3 4 21 55 23 32 62 86 89 58 5 5 5 0 3 2 57 100 97 100
0 0 0 0 0 0 0 4 1 0 0 0 0 1 0 0 0 5 5 5 15 49 5 64 63 91 82 36 41 94 59 70 55 87 15 6 25 5 4 5 6 7 95 100 100
3 0 0 0 0 0 0 17 5 3 0 0 0 84 0 0 1 56 15 8 48 46 63 99 100 100 51 62 71 59 96 68 76 99 85 10 63 48 88 100 96 76 100 100 100
5 1 2 0 0 0 2 0 1 5 2 0 1 0 4 41 61 92 99 98 88 99 78 38 81 95 100 70 77 99 100 96 86 86 78 86 97 100 100 100 100 100 99 100 100
5 5 0 0 3 0 52 0 0 0 2 2 0 0 0 0 5 4 11 38 96 100 99 72 92 100 100 90 100 100 100 100 100 100 100 100 98 100 100 100 100 93 100 100 100
5 5 5 5 7 0 2 0 0 0 4 1 0 0 0 0 0 5 5 12 92 100 94 97 99 98 100 100 91 100 100 99 88 100 100 98 77 100 100 82 99 100 100 100 100
5 5 5 3 54 1 0 5 4 4 5 2 3 0 1 0 0 0 0 1 0 30 80 59 78 59 31 100 100 100 99 73 100 100 100 100 69 100 100 100 100 100 100 100 100
5 67 6 0 5 5 5 5 4 5 5 5 0 1 4 3 0 0 0 0 0 0 1 2 5 5 9 5 18 89 100 100 100 85 74 99 58 79 96 100 43 100 100 100 100
5 5 5 9 2 0 0 1 3 5 5 5 5 4 4 5 0 2 0 0 5 5 2 32 43 1 2 12 28 5 8 7 99 72 62 22 61 70 14 100 86 100 100 100 100
7 41 66 5 5 3 0 0 0 5 5 20 5 5 5 5 5 5 4 5 4 5 5 39 5 2 4 0 1 8 5 5 68 5 5 38 26 5 5 37 44 49 100 100 100
17 25 93 18 5 5 1 3 0 5 5 5 9 9 39 5 5 5 5 5 36 5 12 42 12 15 4 0 0 1 0 0 0 2 1 5 5 4 5 63 52 43 5 69 100